Multibeam Report for KNOX06RR


Ship Name: Roger Revelle
Chief Scientist: Sager, William
Texas A&M University
Source Organization: Rolling Deck to Repository
Start Date: 2007-06-18
End Date: 2007-08-06


View ISO Metadata

Visit the full NCEI Bathymetry Viewer


Multibeam Bathymetry

Cruise Details

Project: Geophysical and Geochemical Site Survey of Ninetyeast Ridge: Testing the Hotspot Hypothesis
Instrument: Kongsberg EM120

Data Quality

Number of Files: 829
Number of Records: 231916
BATHYMETRY DATA Quantity Percentage
Number of Beams 44295956 100%
Number of Good Beams 37611968 84.91%
Number of Zero Beams 6683988 15.09%
Number of Flagged Beams 0 0%
AMPLITUDE DATA Quantity Percentage
Number of Beams 44295956 100%
Number of Good Beams 37611968 84.91%
Number of Zero Beams 6683988 15.09%
Number of Flagged Beams 0 0%
SIDESCAN DATA Quantity Percentage
Number of Pixels 237481984 100%
Number of Good Pixels 135905358 57.23%
Number of Zero Pixels 0 0%
Number of Flagged Pixels 101576626 42.77%

Navigation Totals

Total Time: 799.9081 hours
Total Track Length: 12496.3463 km
Average Speed: 15.622 km/hr (8.4352 knots)

Cruise Bounds

Northern Extent: 5.515048
Southern Extent: -26.078962
Western Extent: 86.67733
Eastern Extent: 103.09347

Limits

Minimum Sonar Depth 1.08 Maximum Sonar Depth 10.26
Minimum Altitude 0 Maximum Altitude 10619.5195
Minimum Depth 601.06 Maximum Depth 11306.3398
Minimum Amplitude 0 Maximum Amplitude 23
Minimum Sidescan 0 Maximum Sidescan 62.5

File Information

Full Resolution Bathymetry as collected (raw): 826

Files File Size Description
0001_20070620_070806_raw.all.mb56.gz 1.97MB Simrad multibeam vendor format
0001_20070624_072306_raw.all.mb56.gz 4.22MB Simrad multibeam vendor format
0001_20070624_200417_raw.all.mb56.gz 4.40MB Simrad multibeam vendor format
0001_20070724_133931_raw.all.mb56.gz 3.98MB Simrad multibeam vendor format
0001_20070802_084719_raw.all.mb56.gz 3.97MB Simrad multibeam vendor format
0002_20070620_073151_raw.all.mb56.gz 5.12MB Simrad multibeam vendor format
0002_20070624_082306_raw.all.mb56.gz 3.86MB Simrad multibeam vendor format
0002_20070624_210417_raw.all.mb56.gz 4.20MB Simrad multibeam vendor format
0002_20070724_143931_raw.all.mb56.gz 17.05MB Simrad multibeam vendor format
0002_20070802_094719_raw.all.mb56.gz 3.74MB Simrad multibeam vendor format
0003_20070620_083152_raw.all.mb56.gz 4.80MB Simrad multibeam vendor format
0003_20070624_092307_raw.all.mb56.gz 3.80MB Simrad multibeam vendor format
0003_20070624_220417_raw.all.mb56.gz 4.34MB Simrad multibeam vendor format
0003_20070724_192804_raw.all.mb56.gz 109.7KB Simrad multibeam vendor format
0003_20070802_104719_raw.all.mb56.gz 3.57MB Simrad multibeam vendor format
0004_20070620_093152_raw.all.mb56.gz 5.43MB Simrad multibeam vendor format
0004_20070624_102307_raw.all.mb56.gz 3.92MB Simrad multibeam vendor format
0004_20070624_230418_raw.all.mb56.gz 4.42MB Simrad multibeam vendor format
0004_20070725_023839_raw.all.mb56.gz 1.50MB Simrad multibeam vendor format
0004_20070802_114720_raw.all.mb56.gz 3.73MB Simrad multibeam vendor format
0005_20070620_103152_raw.all.mb56.gz 5.74MB Simrad multibeam vendor format
0005_20070624_112308_raw.all.mb56.gz 4.17MB Simrad multibeam vendor format
0005_20070625_000418_raw.all.mb56.gz 4.48MB Simrad multibeam vendor format
0005_20070725_030337_raw.all.mb56.gz 3.57MB Simrad multibeam vendor format
0005_20070802_124720_raw.all.mb56.gz 3.68MB Simrad multibeam vendor format
0006_20070620_113153_raw.all.mb56.gz 3.37MB Simrad multibeam vendor format
0006_20070624_122308_raw.all.mb56.gz 4.44MB Simrad multibeam vendor format
0006_20070625_010419_raw.all.mb56.gz 4.66MB Simrad multibeam vendor format
0006_20070725_040338_raw.all.mb56.gz 4.07MB Simrad multibeam vendor format
0006_20070802_134720_raw.all.mb56.gz 3.78MB Simrad multibeam vendor format
0007_20070620_121154_raw.all.mb56.gz 4.82MB Simrad multibeam vendor format
0007_20070624_132308_raw.all.mb56.gz 4.58MB Simrad multibeam vendor format
0007_20070625_020419_raw.all.mb56.gz 4.85MB Simrad multibeam vendor format
0007_20070725_050338_raw.all.mb56.gz 4.14MB Simrad multibeam vendor format
0007_20070802_144721_raw.all.mb56.gz 3.74MB Simrad multibeam vendor format
0008_20070620_131155_raw.all.mb56.gz 4.37MB Simrad multibeam vendor format
0008_20070624_142309_raw.all.mb56.gz 4.83MB Simrad multibeam vendor format
0008_20070625_030420_raw.all.mb56.gz 4.91MB Simrad multibeam vendor format
0008_20070725_060338_raw.all.mb56.gz 4.25MB Simrad multibeam vendor format
0008_20070802_154721_raw.all.mb56.gz 3.68MB Simrad multibeam vendor format
0009_20070620_141155_raw.all.mb56.gz 5.13MB Simrad multibeam vendor format
0009_20070624_152309_raw.all.mb56.gz 4.94MB Simrad multibeam vendor format
0009_20070625_040420_raw.all.mb56.gz 4.91MB Simrad multibeam vendor format
0009_20070725_070339_raw.all.mb56.gz 4.27MB Simrad multibeam vendor format
0009_20070802_164722_raw.all.mb56.gz 3.71MB Simrad multibeam vendor format
0010_20070620_151155_raw.all.mb56.gz 4.72MB Simrad multibeam vendor format
0010_20070624_162309_raw.all.mb56.gz 4.87MB Simrad multibeam vendor format
0010_20070625_050420_raw.all.mb56.gz 4.70MB Simrad multibeam vendor format
0010_20070725_080339_raw.all.mb56.gz 4.25MB Simrad multibeam vendor format
0010_20070802_174722_raw.all.mb56.gz 3.74MB Simrad multibeam vendor format
0011_20070620_161156_raw.all.mb56.gz 4.45MB Simrad multibeam vendor format
0011_20070624_172310_raw.all.mb56.gz 4.68MB Simrad multibeam vendor format
0011_20070625_060421_raw.all.mb56.gz 4.52MB Simrad multibeam vendor format
0011_20070725_090339_raw.all.mb56.gz 4.49MB Simrad multibeam vendor format
0011_20070802_184722_raw.all.mb56.gz 3.74MB Simrad multibeam vendor format
0012_20070620_171156_raw.all.mb56.gz 4.42MB Simrad multibeam vendor format
0012_20070624_182310_raw.all.mb56.gz 4.47MB Simrad multibeam vendor format
0012_20070625_070421_raw.all.mb56.gz 4.37MB Simrad multibeam vendor format
0012_20070725_100340_raw.all.mb56.gz 3.93MB Simrad multibeam vendor format
0012_20070802_194723_raw.all.mb56.gz 3.77MB Simrad multibeam vendor format
0013_20070620_181157_raw.all.mb56.gz 4.42MB Simrad multibeam vendor format
0013_20070624_192311_raw.all.mb56.gz 2.17MB Simrad multibeam vendor format
0013_20070625_080421_raw.all.mb56.gz 3.99MB Simrad multibeam vendor format
0013_20070725_110340_raw.all.mb56.gz 4.07MB Simrad multibeam vendor format
0013_20070802_204723_raw.all.mb56.gz 3.74MB Simrad multibeam vendor format
0014_20070620_191157_raw.all.mb56.gz 4.60MB Simrad multibeam vendor format
0014_20070624_195259_raw.all.mb56.gz 0.71MB Simrad multibeam vendor format
0014_20070625_090422_raw.all.mb56.gz 3.96MB Simrad multibeam vendor format
0014_20070725_120341_raw.all.mb56.gz 4.65MB Simrad multibeam vendor format
0014_20070802_214723_raw.all.mb56.gz 3.72MB Simrad multibeam vendor format
0015_20070620_201157_raw.all.mb56.gz 4.49MB Simrad multibeam vendor format
0015_20070625_100422_raw.all.mb56.gz 3.77MB Simrad multibeam vendor format
0015_20070725_130341_raw.all.mb56.gz 4.29MB Simrad multibeam vendor format
0015_20070802_224724_raw.all.mb56.gz 3.65MB Simrad multibeam vendor format
0016_20070620_211158_raw.all.mb56.gz 4.30MB Simrad multibeam vendor format
0016_20070625_110423_raw.all.mb56.gz 4.01MB Simrad multibeam vendor format
0016_20070725_140341_raw.all.mb56.gz 4.52MB Simrad multibeam vendor format
0016_20070802_234724_raw.all.mb56.gz 3.52MB Simrad multibeam vendor format
0017_20070620_221158_raw.all.mb56.gz 4.55MB Simrad multibeam vendor format
0017_20070625_120423_raw.all.mb56.gz 4.42MB Simrad multibeam vendor format
0017_20070725_150342_raw.all.mb56.gz 4.25MB Simrad multibeam vendor format
0017_20070803_004725_raw.all.mb56.gz 3.54MB Simrad multibeam vendor format
0018_20070620_231159_raw.all.mb56.gz 1.83MB Simrad multibeam vendor format
0018_20070625_130423_raw.all.mb56.gz 4.61MB Simrad multibeam vendor format
0018_20070725_160342_raw.all.mb56.gz 4.54MB Simrad multibeam vendor format
0018_20070803_014725_raw.all.mb56.gz 3.71MB Simrad multibeam vendor format
0019_20070621_042703_raw.all.mb56.gz 4.42MB Simrad multibeam vendor format
0019_20070625_140424_raw.all.mb56.gz 4.80MB Simrad multibeam vendor format
0019_20070725_170342_raw.all.mb56.gz 4.40MB Simrad multibeam vendor format
0019_20070803_024725_raw.all.mb56.gz 3.72MB Simrad multibeam vendor format
0020_20070621_052704_raw.all.mb56.gz 4.53MB Simrad multibeam vendor format
0020_20070625_150424_raw.all.mb56.gz 4.99MB Simrad multibeam vendor format
0020_20070725_180343_raw.all.mb56.gz 4.01MB Simrad multibeam vendor format
0020_20070803_034726_raw.all.mb56.gz 3.77MB Simrad multibeam vendor format
0021_20070621_062704_raw.all.mb56.gz 4.64MB Simrad multibeam vendor format
0021_20070625_160424_raw.all.mb56.gz 4.89MB Simrad multibeam vendor format
0021_20070725_190343_raw.all.mb56.gz 4.21MB Simrad multibeam vendor format
0021_20070803_044726_raw.all.mb56.gz 3.71MB Simrad multibeam vendor format
0022_20070621_072704_raw.all.mb56.gz 4.14MB Simrad multibeam vendor format
0022_20070625_170425_raw.all.mb56.gz 4.82MB Simrad multibeam vendor format
0022_20070725_200344_raw.all.mb56.gz 5.13MB Simrad multibeam vendor format
0022_20070803_054726_raw.all.mb56.gz 2.14MB Simrad multibeam vendor format
0023_20070621_082705_raw.all.mb56.gz 4.25MB Simrad multibeam vendor format
0023_20070625_180425_raw.all.mb56.gz 4.91MB Simrad multibeam vendor format
0023_20070725_210344_raw.all.mb56.gz 5.44MB Simrad multibeam vendor format
0024_20070621_092705_raw.all.mb56.gz 4.38MB Simrad multibeam vendor format
0024_20070625_190426_raw.all.mb56.gz 4.95MB Simrad multibeam vendor format
0024_20070725_220344_raw.all.mb56.gz 5.15MB Simrad multibeam vendor format
0025_20070621_102706_raw.all.mb56.gz 4.71MB Simrad multibeam vendor format
0025_20070625_200426_raw.all.mb56.gz 4.88MB Simrad multibeam vendor format
0025_20070725_230345_raw.all.mb56.gz 5.13MB Simrad multibeam vendor format
0026_20070621_112706_raw.all.mb56.gz 4.53MB Simrad multibeam vendor format
0026_20070625_210426_raw.all.mb56.gz 4.64MB Simrad multibeam vendor format
0026_20070726_000345_raw.all.mb56.gz 4.97MB Simrad multibeam vendor format
0027_20070621_122707_raw.all.mb56.gz 4.23MB Simrad multibeam vendor format
0027_20070625_220427_raw.all.mb56.gz 4.66MB Simrad multibeam vendor format
0027_20070726_010345_raw.all.mb56.gz 4.87MB Simrad multibeam vendor format
0028_20070621_132707_raw.all.mb56.gz 4.38MB Simrad multibeam vendor format
0028_20070625_230427_raw.all.mb56.gz 4.65MB Simrad multibeam vendor format
0028_20070726_020346_raw.all.mb56.gz 5.28MB Simrad multibeam vendor format
0029_20070621_142707_raw.all.mb56.gz 4.35MB Simrad multibeam vendor format
0029_20070626_000427_raw.all.mb56.gz 4.64MB Simrad multibeam vendor format
0029_20070726_030346_raw.all.mb56.gz 5.37MB Simrad multibeam vendor format
0030_20070621_152708_raw.all.mb56.gz 4.23MB Simrad multibeam vendor format
0030_20070626_010428_raw.all.mb56.gz 4.61MB Simrad multibeam vendor format
0030_20070726_040347_raw.all.mb56.gz 5.45MB Simrad multibeam vendor format
0031_20070621_162708_raw.all.mb56.gz 4.21MB Simrad multibeam vendor format
0031_20070626_020428_raw.all.mb56.gz 3.97MB Simrad multibeam vendor format
0031_20070726_050347_raw.all.mb56.gz 5.09MB Simrad multibeam vendor format
0032_20070621_172709_raw.all.mb56.gz 4.13MB Simrad multibeam vendor format
0032_20070626_030429_raw.all.mb56.gz 3.50MB Simrad multibeam vendor format
0032_20070726_060347_raw.all.mb56.gz 4.83MB Simrad multibeam vendor format
0033_20070621_182709_raw.all.mb56.gz 4.01MB Simrad multibeam vendor format
0033_20070726_070348_raw.all.mb56.gz 5.02MB Simrad multibeam vendor format
0034_20070621_192709_raw.all.mb56.gz 4.14MB Simrad multibeam vendor format
0034_20070626_094847_raw.all.mb56.gz 4.00MB Simrad multibeam vendor format
0034_20070726_080348_raw.all.mb56.gz 5.69MB Simrad multibeam vendor format
0035_20070621_202710_raw.all.mb56.gz 4.21MB Simrad multibeam vendor format
0035_20070626_104848_raw.all.mb56.gz 3.82MB Simrad multibeam vendor format
0035_20070726_090349_raw.all.mb56.gz 5.55MB Simrad multibeam vendor format
0036_20070621_212710_raw.all.mb56.gz 4.21MB Simrad multibeam vendor format
0036_20070626_114848_raw.all.mb56.gz 3.76MB Simrad multibeam vendor format
0036_20070726_100349_raw.all.mb56.gz 5.60MB Simrad multibeam vendor format
0037_20070621_222711_raw.all.mb56.gz 4.45MB Simrad multibeam vendor format
0037_20070626_124848_raw.all.mb56.gz 3.80MB Simrad multibeam vendor format
0037_20070726_110349_raw.all.mb56.gz 5.23MB Simrad multibeam vendor format
0038_20070621_232711_raw.all.mb56.gz 4.49MB Simrad multibeam vendor format
0038_20070626_134849_raw.all.mb56.gz 2.69MB Simrad multibeam vendor format
0038_20070726_120350_raw.all.mb56.gz 5.33MB Simrad multibeam vendor format
0039_20070622_002711_raw.all.mb56.gz 4.36MB Simrad multibeam vendor format
0039_20070726_130350_raw.all.mb56.gz 5.47MB Simrad multibeam vendor format
0040_20070622_012712_raw.all.mb56.gz 4.44MB Simrad multibeam vendor format
0040_20070626_195236_raw.all.mb56.gz 3.98MB Simrad multibeam vendor format
0040_20070726_140350_raw.all.mb56.gz 5.33MB Simrad multibeam vendor format
0041_20070622_022712_raw.all.mb56.gz 4.51MB Simrad multibeam vendor format
0041_20070626_205236_raw.all.mb56.gz 4.04MB Simrad multibeam vendor format
0041_20070726_150351_raw.all.mb56.gz 4.91MB Simrad multibeam vendor format
0042_20070622_032713_raw.all.mb56.gz 4.37MB Simrad multibeam vendor format
0042_20070626_215237_raw.all.mb56.gz 3.90MB Simrad multibeam vendor format
0042_20070726_160351_raw.all.mb56.gz 4.77MB Simrad multibeam vendor format
0043_20070622_042713_raw.all.mb56.gz 4.15MB Simrad multibeam vendor format
0043_20070626_225237_raw.all.mb56.gz 4.05MB Simrad multibeam vendor format
0043_20070726_170352_raw.all.mb56.gz 4.88MB Simrad multibeam vendor format
0044_20070622_052713_raw.all.mb56.gz 4.15MB Simrad multibeam vendor format
0044_20070626_235237_raw.all.mb56.gz 4.31MB Simrad multibeam vendor format
0044_20070726_180352_raw.all.mb56.gz 4.29MB Simrad multibeam vendor format
0045_20070622_062714_raw.all.mb56.gz 4.27MB Simrad multibeam vendor format
0045_20070627_005238_raw.all.mb56.gz 4.38MB Simrad multibeam vendor format
0045_20070726_190352_raw.all.mb56.gz 3.90MB Simrad multibeam vendor format
0046_20070622_072714_raw.all.mb56.gz 4.55MB Simrad multibeam vendor format
0046_20070627_015238_raw.all.mb56.gz 4.23MB Simrad multibeam vendor format
0046_20070726_200353_raw.all.mb56.gz 3.74MB Simrad multibeam vendor format
0047_20070622_082715_raw.all.mb56.gz 4.46MB Simrad multibeam vendor format
0047_20070627_025238_raw.all.mb56.gz 4.07MB Simrad multibeam vendor format
0047_20070726_210353_raw.all.mb56.gz 4.36MB Simrad multibeam vendor format
0048_20070622_092715_raw.all.mb56.gz 4.39MB Simrad multibeam vendor format
0048_20070627_035239_raw.all.mb56.gz 4.39MB Simrad multibeam vendor format
0048_20070726_220353_raw.all.mb56.gz 4.81MB Simrad multibeam vendor format
0049_20070622_102715_raw.all.mb56.gz 4.41MB Simrad multibeam vendor format
0049_20070627_045239_raw.all.mb56.gz 4.28MB Simrad multibeam vendor format
0049_20070726_230354_raw.all.mb56.gz 4.93MB Simrad multibeam vendor format
0050_20070622_112716_raw.all.mb56.gz 4.40MB Simrad multibeam vendor format
0050_20070627_055240_raw.all.mb56.gz 4.45MB Simrad multibeam vendor format
0050_20070727_000354_raw.all.mb56.gz 5.29MB Simrad multibeam vendor format
0051_20070622_122716_raw.all.mb56.gz 4.37MB Simrad multibeam vendor format
0051_20070627_065240_raw.all.mb56.gz 4.50MB Simrad multibeam vendor format
0051_20070727_010355_raw.all.mb56.gz 4.23MB Simrad multibeam vendor format
0052_20070622_132717_raw.all.mb56.gz 4.29MB Simrad multibeam vendor format
0052_20070627_075240_raw.all.mb56.gz 4.36MB Simrad multibeam vendor format
0052_20070727_020355_raw.all.mb56.gz 4.57MB Simrad multibeam vendor format
0053_20070622_142717_raw.all.mb56.gz 4.25MB Simrad multibeam vendor format
0053_20070627_085241_raw.all.mb56.gz 4.03MB Simrad multibeam vendor format
0053_20070727_030355_raw.all.mb56.gz 5.14MB Simrad multibeam vendor format
0054_20070622_152718_raw.all.mb56.gz 4.52MB Simrad multibeam vendor format
0054_20070727_040356_raw.all.mb56.gz 5.06MB Simrad multibeam vendor format
0055_20070622_162718_raw.all.mb56.gz 4.44MB Simrad multibeam vendor format
0055_20070627_140059_raw.all.mb56.gz 4.29MB Simrad multibeam vendor format
0055_20070727_050356_raw.all.mb56.gz 5.03MB Simrad multibeam vendor format
0056_20070622_172718_raw.all.mb56.gz 4.33MB Simrad multibeam vendor format
0056_20070627_150059_raw.all.mb56.gz 4.39MB Simrad multibeam vendor format
0056_20070727_060356_raw.all.mb56.gz 4.97MB Simrad multibeam vendor format
0057_20070622_182719_raw.all.mb56.gz 4.47MB Simrad multibeam vendor format
0057_20070627_160059_raw.all.mb56.gz 4.43MB Simrad multibeam vendor format
0057_20070727_070357_raw.all.mb56.gz 4.80MB Simrad multibeam vendor format
0058_20070622_192719_raw.all.mb56.gz 4.56MB Simrad multibeam vendor format
0058_20070627_170100_raw.all.mb56.gz 4.36MB Simrad multibeam vendor format
0058_20070727_080357_raw.all.mb56.gz 4.84MB Simrad multibeam vendor format
0059_20070622_202720_raw.all.mb56.gz 4.57MB Simrad multibeam vendor format
0059_20070627_180100_raw.all.mb56.gz 4.38MB Simrad multibeam vendor format
0059_20070727_090358_raw.all.mb56.gz 5.10MB Simrad multibeam vendor format
0060_20070622_212720_raw.all.mb56.gz 4.41MB Simrad multibeam vendor format
0060_20070627_190100_raw.all.mb56.gz 4.41MB Simrad multibeam vendor format
0060_20070727_100358_raw.all.mb56.gz 4.95MB Simrad multibeam vendor format
0061_20070622_222720_raw.all.mb56.gz 4.28MB Simrad multibeam vendor format
0061_20070627_200101_raw.all.mb56.gz 4.41MB Simrad multibeam vendor format
0061_20070727_110358_raw.all.mb56.gz 4.91MB Simrad multibeam vendor format
0062_20070622_232721_raw.all.mb56.gz 4.23MB Simrad multibeam vendor format
0062_20070627_210101_raw.all.mb56.gz 4.43MB Simrad multibeam vendor format
0062_20070727_120359_raw.all.mb56.gz 4.99MB Simrad multibeam vendor format
0063_20070623_002721_raw.all.mb56.gz 17.28MB Simrad multibeam vendor format
0063_20070627_220102_raw.all.mb56.gz 4.43MB Simrad multibeam vendor format
0063_20070727_130359_raw.all.mb56.gz 4.99MB Simrad multibeam vendor format
0064_20070627_230102_raw.all.mb56.gz 4.26MB Simrad multibeam vendor format
0064_20070727_140359_raw.all.mb56.gz 4.98MB Simrad multibeam vendor format
0065_20070628_000102_raw.all.mb56.gz 4.12MB Simrad multibeam vendor format
0065_20070727_150400_raw.all.mb56.gz 5.02MB Simrad multibeam vendor format
0066_20070628_010103_raw.all.mb56.gz 3.60MB Simrad multibeam vendor format
0066_20070727_160400_raw.all.mb56.gz 5.15MB Simrad multibeam vendor format
0067_20070628_020103_raw.all.mb56.gz 0.62MB Simrad multibeam vendor format
0067_20070727_170401_raw.all.mb56.gz 5.09MB Simrad multibeam vendor format
0068_20070623_101940_raw.all.mb56.gz 0.50MB Simrad multibeam vendor format
0068_20070727_180401_raw.all.mb56.gz 5.21MB Simrad multibeam vendor format
0069_20070623_103027_raw.all.mb56.gz 4.28MB Simrad multibeam vendor format
0069_20070628_095922_raw.all.mb56.gz 2.98MB Simrad multibeam vendor format
0069_20070727_190402_raw.all.mb56.gz 4.70MB Simrad multibeam vendor format
0070_20070623_113028_raw.all.mb56.gz 3.46MB Simrad multibeam vendor format
0070_20070628_105403_raw.all.mb56.gz 37.2KB Simrad multibeam vendor format
0070_20070727_200402_raw.all.mb56.gz 4.80MB Simrad multibeam vendor format
0071_20070623_121908_raw.all.mb56.gz 4.07MB Simrad multibeam vendor format
0071_20070727_210402_raw.all.mb56.gz 4.85MB Simrad multibeam vendor format
0072_20070623_131909_raw.all.mb56.gz 4.08MB Simrad multibeam vendor format
0072_20070628_105505_raw.all.mb56.gz 3.90MB Simrad multibeam vendor format
0072_20070727_220403_raw.all.mb56.gz 5.03MB Simrad multibeam vendor format
0073_20070623_141909_raw.all.mb56.gz 4.12MB Simrad multibeam vendor format
0073_20070628_115505_raw.all.mb56.gz 4.01MB Simrad multibeam vendor format
0073_20070727_230403_raw.all.mb56.gz 3.24MB Simrad multibeam vendor format
0074_20070623_151910_raw.all.mb56.gz 4.06MB Simrad multibeam vendor format
0074_20070628_125506_raw.all.mb56.gz 4.28MB Simrad multibeam vendor format
0074_20070728_000404_raw.all.mb56.gz 2.91MB Simrad multibeam vendor format
0075_20070623_161910_raw.all.mb56.gz 4.06MB Simrad multibeam vendor format
0075_20070628_135506_raw.all.mb56.gz 3.93MB Simrad multibeam vendor format
0075_20070728_010404_raw.all.mb56.gz 4.37MB Simrad multibeam vendor format
0076_20070623_171911_raw.all.mb56.gz 4.06MB Simrad multibeam vendor format
0076_20070628_145507_raw.all.mb56.gz 3.45MB Simrad multibeam vendor format
0076_20070728_020404_raw.all.mb56.gz 4.72MB Simrad multibeam vendor format
0077_20070623_181911_raw.all.mb56.gz 3.93MB Simrad multibeam vendor format
0077_20070628_154754_raw.all.mb56.gz 7.2KB Simrad multibeam vendor format
0077_20070728_030405_raw.all.mb56.gz 4.61MB Simrad multibeam vendor format
0078_20070623_191911_raw.all.mb56.gz 4.16MB Simrad multibeam vendor format
0078_20070628_212905_raw.all.mb56.gz 4.16MB Simrad multibeam vendor format
0078_20070728_040405_raw.all.mb56.gz 4.67MB Simrad multibeam vendor format
0079_20070623_201912_raw.all.mb56.gz 4.14MB Simrad multibeam vendor format
0079_20070628_222906_raw.all.mb56.gz 4.04MB Simrad multibeam vendor format
0079_20070728_050405_raw.all.mb56.gz 5.15MB Simrad multibeam vendor format
0080_20070623_211912_raw.all.mb56.gz 4.29MB Simrad multibeam vendor format
0080_20070628_232906_raw.all.mb56.gz 4.36MB Simrad multibeam vendor format
0080_20070728_060406_raw.all.mb56.gz 5.09MB Simrad multibeam vendor format
0081_20070623_221912_raw.all.mb56.gz 4.36MB Simrad multibeam vendor format
0081_20070629_002906_raw.all.mb56.gz 4.36MB Simrad multibeam vendor format
0081_20070728_070406_raw.all.mb56.gz 4.34MB Simrad multibeam vendor format
0082_20070623_231913_raw.all.mb56.gz 4.48MB Simrad multibeam vendor format
0082_20070629_012907_raw.all.mb56.gz 4.34MB Simrad multibeam vendor format
0082_20070728_080407_raw.all.mb56.gz 4.58MB Simrad multibeam vendor format
0083_20070624_001913_raw.all.mb56.gz 4.65MB Simrad multibeam vendor format
0083_20070629_022907_raw.all.mb56.gz 4.18MB Simrad multibeam vendor format
0083_20070728_090407_raw.all.mb56.gz 3.72MB Simrad multibeam vendor format
0084_20070624_011914_raw.all.mb56.gz 4.77MB Simrad multibeam vendor format
0084_20070629_032908_raw.all.mb56.gz 4.15MB Simrad multibeam vendor format
0084_20070728_181953_raw.all.mb56.gz 5.06MB Simrad multibeam vendor format
0085_20070624_021914_raw.all.mb56.gz 4.78MB Simrad multibeam vendor format
0085_20070629_042908_raw.all.mb56.gz 4.22MB Simrad multibeam vendor format
0085_20070728_191953_raw.all.mb56.gz 4.83MB Simrad multibeam vendor format
0086_20070624_031914_raw.all.mb56.gz 4.83MB Simrad multibeam vendor format
0086_20070629_052908_raw.all.mb56.gz 4.46MB Simrad multibeam vendor format
0086_20070728_201954_raw.all.mb56.gz 4.59MB Simrad multibeam vendor format
0087_20070624_041915_raw.all.mb56.gz 4.87MB Simrad multibeam vendor format
0087_20070629_062909_raw.all.mb56.gz 4.20MB Simrad multibeam vendor format
0087_20070728_211954_raw.all.mb56.gz 4.66MB Simrad multibeam vendor format
0088_20070624_051915_raw.all.mb56.gz 4.61MB Simrad multibeam vendor format
0088_20070629_072909_raw.all.mb56.gz 4.43MB Simrad multibeam vendor format
0088_20070728_221954_raw.all.mb56.gz 4.37MB Simrad multibeam vendor format
0089_20070624_061916_raw.all.mb56.gz 3.38MB Simrad multibeam vendor format
0089_20070629_082909_raw.all.mb56.gz 3.35MB Simrad multibeam vendor format
0089_20070728_231955_raw.all.mb56.gz 4.08MB Simrad multibeam vendor format
0090_20070629_153614_raw.all.mb56.gz 4.48MB Simrad multibeam vendor format
0090_20070729_001955_raw.all.mb56.gz 3.89MB Simrad multibeam vendor format
0091_20070629_163615_raw.all.mb56.gz 4.60MB Simrad multibeam vendor format
0091_20070729_011955_raw.all.mb56.gz 0.92MB Simrad multibeam vendor format
0092_20070629_173615_raw.all.mb56.gz 4.66MB Simrad multibeam vendor format
0092_20070729_110121_raw.all.mb56.gz 0.51MB Simrad multibeam vendor format
0093_20070629_183615_raw.all.mb56.gz 4.53MB Simrad multibeam vendor format
0093_20070729_113337_raw.all.mb56.gz 3.76MB Simrad multibeam vendor format
0094_20070629_193616_raw.all.mb56.gz 4.51MB Simrad multibeam vendor format
0094_20070729_123337_raw.all.mb56.gz 3.73MB Simrad multibeam vendor format
0095_20070629_203616_raw.all.mb56.gz 4.51MB Simrad multibeam vendor format
0095_20070729_133337_raw.all.mb56.gz 3.80MB Simrad multibeam vendor format
0096_20070629_213616_raw.all.mb56.gz 4.57MB Simrad multibeam vendor format
0096_20070729_143338_raw.all.mb56.gz 3.81MB Simrad multibeam vendor format
0097_20070629_223617_raw.all.mb56.gz 4.42MB Simrad multibeam vendor format
0097_20070729_153338_raw.all.mb56.gz 3.98MB Simrad multibeam vendor format
0098_20070629_233617_raw.all.mb56.gz 4.42MB Simrad multibeam vendor format
0098_20070729_163339_raw.all.mb56.gz 3.81MB Simrad multibeam vendor format
0099_20070630_003618_raw.all.mb56.gz 4.38MB Simrad multibeam vendor format
0099_20070729_173339_raw.all.mb56.gz 3.70MB Simrad multibeam vendor format
0100_20070630_013618_raw.all.mb56.gz 4.41MB Simrad multibeam vendor format
0100_20070729_183339_raw.all.mb56.gz 3.72MB Simrad multibeam vendor format
0101_20070630_023618_raw.all.mb56.gz 4.40MB Simrad multibeam vendor format
0101_20070729_193340_raw.all.mb56.gz 3.68MB Simrad multibeam vendor format
0102_20070630_033619_raw.all.mb56.gz 4.39MB Simrad multibeam vendor format
0102_20070729_203340_raw.all.mb56.gz 3.91MB Simrad multibeam vendor format
0103_20070630_043619_raw.all.mb56.gz 4.22MB Simrad multibeam vendor format
0103_20070729_213340_raw.all.mb56.gz 3.49MB Simrad multibeam vendor format
0104_20070630_053619_raw.all.mb56.gz 4.17MB Simrad multibeam vendor format
0104_20070729_223341_raw.all.mb56.gz 3.52MB Simrad multibeam vendor format
0105_20070630_063620_raw.all.mb56.gz 4.52MB Simrad multibeam vendor format
0105_20070729_233341_raw.all.mb56.gz 3.59MB Simrad multibeam vendor format
0106_20070630_073620_raw.all.mb56.gz 4.52MB Simrad multibeam vendor format
0106_20070730_003342_raw.all.mb56.gz 3.60MB Simrad multibeam vendor format
0107_20070630_083621_raw.all.mb56.gz 4.03MB Simrad multibeam vendor format
0107_20070730_013342_raw.all.mb56.gz 3.68MB Simrad multibeam vendor format
0108_20070730_023342_raw.all.mb56.gz 3.65MB Simrad multibeam vendor format
0109_20070630_093215_raw.all.mb56.gz 4.35MB Simrad multibeam vendor format
0109_20070730_033343_raw.all.mb56.gz 3.90MB Simrad multibeam vendor format
0110_20070630_103215_raw.all.mb56.gz 4.46MB Simrad multibeam vendor format
0110_20070730_043343_raw.all.mb56.gz 4.00MB Simrad multibeam vendor format
0111_20070630_113215_raw.all.mb56.gz 4.40MB Simrad multibeam vendor format
0111_20070730_053343_raw.all.mb56.gz 3.64MB Simrad multibeam vendor format
0112_20070630_123216_raw.all.mb56.gz 4.46MB Simrad multibeam vendor format
0112_20070730_063344_raw.all.mb56.gz 3.64MB Simrad multibeam vendor format
0113_20070630_133216_raw.all.mb56.gz 4.34MB Simrad multibeam vendor format
0113_20070730_073344_raw.all.mb56.gz 3.82MB Simrad multibeam vendor format
0114_20070630_143216_raw.all.mb56.gz 4.13MB Simrad multibeam vendor format
0114_20070730_083345_raw.all.mb56.gz 3.75MB Simrad multibeam vendor format
0115_20070630_153217_raw.all.mb56.gz 4.26MB Simrad multibeam vendor format
0115_20070730_093345_raw.all.mb56.gz 3.84MB Simrad multibeam vendor format
0116_20070630_163217_raw.all.mb56.gz 4.36MB Simrad multibeam vendor format
0116_20070730_103345_raw.all.mb56.gz 3.88MB Simrad multibeam vendor format
0117_20070630_173218_raw.all.mb56.gz 4.59MB Simrad multibeam vendor format
0117_20070730_113346_raw.all.mb56.gz 3.90MB Simrad multibeam vendor format
0118_20070630_183218_raw.all.mb56.gz 4.47MB Simrad multibeam vendor format
0118_20070730_123346_raw.all.mb56.gz 4.01MB Simrad multibeam vendor format
0119_20070630_193218_raw.all.mb56.gz 4.51MB Simrad multibeam vendor format
0119_20070730_133346_raw.all.mb56.gz 3.67MB Simrad multibeam vendor format
0120_20070630_203219_raw.all.mb56.gz 4.37MB Simrad multibeam vendor format
0120_20070730_143347_raw.all.mb56.gz 3.78MB Simrad multibeam vendor format
0121_20070630_213219_raw.all.mb56.gz 4.39MB Simrad multibeam vendor format
0121_20070730_153347_raw.all.mb56.gz 3.82MB Simrad multibeam vendor format
0122_20070630_223220_raw.all.mb56.gz 4.25MB Simrad multibeam vendor format
0122_20070730_163348_raw.all.mb56.gz 3.76MB Simrad multibeam vendor format
0123_20070630_233220_raw.all.mb56.gz 4.14MB Simrad multibeam vendor format
0123_20070730_173348_raw.all.mb56.gz 3.75MB Simrad multibeam vendor format
0124_20070701_003220_raw.all.mb56.gz 4.28MB Simrad multibeam vendor format
0124_20070730_183348_raw.all.mb56.gz 3.74MB Simrad multibeam vendor format
0125_20070701_013221_raw.all.mb56.gz 4.44MB Simrad multibeam vendor format
0125_20070730_193349_raw.all.mb56.gz 3.75MB Simrad multibeam vendor format
0126_20070701_023221_raw.all.mb56.gz 4.42MB Simrad multibeam vendor format
0126_20070730_203349_raw.all.mb56.gz 3.76MB Simrad multibeam vendor format
0127_20070701_033221_raw.all.mb56.gz 0.60MB Simrad multibeam vendor format
0127_20070730_213349_raw.all.mb56.gz 3.88MB Simrad multibeam vendor format
0128_20070701_034102_raw.all.mb56.gz 4.31MB Simrad multibeam vendor format
0128_20070730_223350_raw.all.mb56.gz 4.15MB Simrad multibeam vendor format
0129_20070701_044102_raw.all.mb56.gz 4.45MB Simrad multibeam vendor format
0129_20070730_233350_raw.all.mb56.gz 3.90MB Simrad multibeam vendor format
0130_20070701_054103_raw.all.mb56.gz 4.62MB Simrad multibeam vendor format
0130_20070731_003351_raw.all.mb56.gz 3.92MB Simrad multibeam vendor format
0131_20070701_064103_raw.all.mb56.gz 4.87MB Simrad multibeam vendor format
0131_20070731_013351_raw.all.mb56.gz 1.97MB Simrad multibeam vendor format
0132_20070701_074103_raw.all.mb56.gz 4.55MB Simrad multibeam vendor format
0132_20070731_020339_raw.all.mb56.gz 3.82MB Simrad multibeam vendor format
0133_20070701_084104_raw.all.mb56.gz 4.44MB Simrad multibeam vendor format
0133_20070731_030339_raw.all.mb56.gz 3.92MB Simrad multibeam vendor format
0134_20070701_094104_raw.all.mb56.gz 4.57MB Simrad multibeam vendor format
0134_20070731_040339_raw.all.mb56.gz 3.85MB Simrad multibeam vendor format
0135_20070701_104105_raw.all.mb56.gz 4.53MB Simrad multibeam vendor format
0135_20070731_050340_raw.all.mb56.gz 3.92MB Simrad multibeam vendor format
0136_20070701_114105_raw.all.mb56.gz 4.53MB Simrad multibeam vendor format
0136_20070731_060340_raw.all.mb56.gz 4.03MB Simrad multibeam vendor format
0137_20070701_124105_raw.all.mb56.gz 4.14MB Simrad multibeam vendor format
0137_20070731_070340_raw.all.mb56.gz 4.16MB Simrad multibeam vendor format
0138_20070701_134106_raw.all.mb56.gz 4.04MB Simrad multibeam vendor format
0138_20070731_080341_raw.all.mb56.gz 4.07MB Simrad multibeam vendor format
0139_20070701_144106_raw.all.mb56.gz 3.92MB Simrad multibeam vendor format
0139_20070731_090341_raw.all.mb56.gz 3.97MB Simrad multibeam vendor format
0140_20070701_154106_raw.all.mb56.gz 4.23MB Simrad multibeam vendor format
0140_20070731_100342_raw.all.mb56.gz 4.02MB Simrad multibeam vendor format
0141_20070701_164107_raw.all.mb56.gz 4.61MB Simrad multibeam vendor format
0141_20070731_110342_raw.all.mb56.gz 3.92MB Simrad multibeam vendor format
0142_20070701_174107_raw.all.mb56.gz 4.68MB Simrad multibeam vendor format
0142_20070731_120342_raw.all.mb56.gz 4.09MB Simrad multibeam vendor format
0143_20070701_184108_raw.all.mb56.gz 3.67MB Simrad multibeam vendor format
0143_20070731_130343_raw.all.mb56.gz 4.00MB Simrad multibeam vendor format
0144_20070701_194108_raw.all.mb56.gz 5.25MB Simrad multibeam vendor format
0144_20070731_140343_raw.all.mb56.gz 3.93MB Simrad multibeam vendor format
0145_20070701_204108_raw.all.mb56.gz 5.58MB Simrad multibeam vendor format
0145_20070731_150343_raw.all.mb56.gz 3.91MB Simrad multibeam vendor format
0146_20070701_214109_raw.all.mb56.gz 5.78MB Simrad multibeam vendor format
0146_20070731_160344_raw.all.mb56.gz 3.77MB Simrad multibeam vendor format
0147_20070701_224109_raw.all.mb56.gz 5.75MB Simrad multibeam vendor format
0147_20070731_170344_raw.all.mb56.gz 3.81MB Simrad multibeam vendor format
0148_20070701_234110_raw.all.mb56.gz 5.64MB Simrad multibeam vendor format
0148_20070731_180345_raw.all.mb56.gz 3.77MB Simrad multibeam vendor format
0149_20070702_004110_raw.all.mb56.gz 5.55MB Simrad multibeam vendor format
0149_20070731_190345_raw.all.mb56.gz 3.85MB Simrad multibeam vendor format
0150_20070702_014111_raw.all.mb56.gz 5.62MB Simrad multibeam vendor format
0150_20070731_200345_raw.all.mb56.gz 18.84MB Simrad multibeam vendor format
0151_20070702_024111_raw.all.mb56.gz 5.53MB Simrad multibeam vendor format
0151_20070801_010136_raw.all.mb56.gz 3.75MB Simrad multibeam vendor format
0152_20070702_034111_raw.all.mb56.gz 5.19MB Simrad multibeam vendor format
0152_20070801_020136_raw.all.mb56.gz 3.71MB Simrad multibeam vendor format
0153_20070702_044112_raw.all.mb56.gz 4.39MB Simrad multibeam vendor format
0153_20070801_030136_raw.all.mb56.gz 3.78MB Simrad multibeam vendor format
0154_20070702_054112_raw.all.mb56.gz 4.26MB Simrad multibeam vendor format
0154_20070801_040137_raw.all.mb56.gz 3.79MB Simrad multibeam vendor format
0155_20070702_064112_raw.all.mb56.gz 4.23MB Simrad multibeam vendor format
0155_20070801_050137_raw.all.mb56.gz 1.86MB Simrad multibeam vendor format
0156_20070702_074113_raw.all.mb56.gz 4.26MB Simrad multibeam vendor format
0156_20070802_082613_raw.all.mb56.gz 0.76MB Simrad multibeam vendor format
0157_20070702_084113_raw.all.mb56.gz 4.28MB Simrad multibeam vendor format
0157_20070802_083904_raw.all.mb56.gz 68.6KB Simrad multibeam vendor format
0158_20070702_094114_raw.all.mb56.gz 4.29MB Simrad multibeam vendor format
0158_20070802_084259_raw.all.mb56.gz 6.0KB Simrad multibeam vendor format
0159_20070702_104114_raw.all.mb56.gz 4.51MB Simrad multibeam vendor format
0160_20070702_114114_raw.all.mb56.gz 4.47MB Simrad multibeam vendor format
0161_20070702_124115_raw.all.mb56.gz 4.34MB Simrad multibeam vendor format
0161_20070802_084349_raw.all.mb56.gz 126.6KB Simrad multibeam vendor format
0162_20070702_134115_raw.all.mb56.gz 4.32MB Simrad multibeam vendor format
0163_20070702_144116_raw.all.mb56.gz 4.41MB Simrad multibeam vendor format
0164_20070702_154116_raw.all.mb56.gz 4.54MB Simrad multibeam vendor format
0165_20070702_164116_raw.all.mb56.gz 4.33MB Simrad multibeam vendor format
0166_20070702_174117_raw.all.mb56.gz 4.14MB Simrad multibeam vendor format
0167_20070702_184117_raw.all.mb56.gz 4.21MB Simrad multibeam vendor format
0168_20070702_194118_raw.all.mb56.gz 4.32MB Simrad multibeam vendor format
0169_20070702_204118_raw.all.mb56.gz 4.60MB Simrad multibeam vendor format
0170_20070702_214118_raw.all.mb56.gz 4.35MB Simrad multibeam vendor format
0171_20070702_224119_raw.all.mb56.gz 4.37MB Simrad multibeam vendor format
0172_20070702_234119_raw.all.mb56.gz 4.36MB Simrad multibeam vendor format
0173_20070703_004119_raw.all.mb56.gz 4.28MB Simrad multibeam vendor format
0174_20070703_014120_raw.all.mb56.gz 4.13MB Simrad multibeam vendor format
0175_20070703_024120_raw.all.mb56.gz 4.14MB Simrad multibeam vendor format
0176_20070703_034121_raw.all.mb56.gz 4.31MB Simrad multibeam vendor format
0177_20070703_044121_raw.all.mb56.gz 4.39MB Simrad multibeam vendor format
0178_20070703_054121_raw.all.mb56.gz 4.28MB Simrad multibeam vendor format
0179_20070703_064122_raw.all.mb56.gz 4.17MB Simrad multibeam vendor format
0180_20070703_074122_raw.all.mb56.gz 3.96MB Simrad multibeam vendor format
0181_20070703_084122_raw.all.mb56.gz 4.29MB Simrad multibeam vendor format
0182_20070703_094123_raw.all.mb56.gz 4.23MB Simrad multibeam vendor format
0183_20070703_104123_raw.all.mb56.gz 4.45MB Simrad multibeam vendor format
0184_20070703_114124_raw.all.mb56.gz 3.85MB Simrad multibeam vendor format
0185_20070703_191426_raw.all.mb56.gz 7.3KB Simrad multibeam vendor format
0186_20070704_011610_raw.all.mb56.gz 4.52MB Simrad multibeam vendor format
0187_20070704_021610_raw.all.mb56.gz 4.39MB Simrad multibeam vendor format
0188_20070704_031610_raw.all.mb56.gz 2.85MB Simrad multibeam vendor format
0189_20070704_124050_raw.all.mb56.gz 1.9KB Simrad multibeam vendor format
0190_20070704_124123_raw.all.mb56.gz 4.48MB Simrad multibeam vendor format
0191_20070704_134123_raw.all.mb56.gz 4.56MB Simrad multibeam vendor format
0192_20070704_144124_raw.all.mb56.gz 4.54MB Simrad multibeam vendor format
0193_20070704_154124_raw.all.mb56.gz 4.50MB Simrad multibeam vendor format
0194_20070704_164125_raw.all.mb56.gz 4.39MB Simrad multibeam vendor format
0195_20070704_174125_raw.all.mb56.gz 4.39MB Simrad multibeam vendor format
0196_20070704_184125_raw.all.mb56.gz 4.45MB Simrad multibeam vendor format
0197_20070704_194126_raw.all.mb56.gz 4.34MB Simrad multibeam vendor format
0198_20070704_204126_raw.all.mb56.gz 4.50MB Simrad multibeam vendor format
0199_20070704_214126_raw.all.mb56.gz 4.52MB Simrad multibeam vendor format
0200_20070704_224127_raw.all.mb56.gz 4.48MB Simrad multibeam vendor format
0201_20070704_234127_raw.all.mb56.gz 4.49MB Simrad multibeam vendor format
0202_20070705_004128_raw.all.mb56.gz 4.63MB Simrad multibeam vendor format
0203_20070705_014128_raw.all.mb56.gz 4.78MB Simrad multibeam vendor format
0204_20070705_024128_raw.all.mb56.gz 4.75MB Simrad multibeam vendor format
0205_20070705_034129_raw.all.mb56.gz 4.61MB Simrad multibeam vendor format
0206_20070705_044129_raw.all.mb56.gz 4.55MB Simrad multibeam vendor format
0207_20070705_054130_raw.all.mb56.gz 4.32MB Simrad multibeam vendor format
0208_20070705_064130_raw.all.mb56.gz 4.09MB Simrad multibeam vendor format
0209_20070705_074130_raw.all.mb56.gz 3.89MB Simrad multibeam vendor format
0210_20070705_084131_raw.all.mb56.gz 3.98MB Simrad multibeam vendor format
0211_20070705_094131_raw.all.mb56.gz 4.06MB Simrad multibeam vendor format
0212_20070705_104131_raw.all.mb56.gz 4.39MB Simrad multibeam vendor format
0213_20070705_114132_raw.all.mb56.gz 4.58MB Simrad multibeam vendor format
0214_20070705_124132_raw.all.mb56.gz 4.68MB Simrad multibeam vendor format
0215_20070705_134133_raw.all.mb56.gz 4.61MB Simrad multibeam vendor format
0216_20070705_144133_raw.all.mb56.gz 4.17MB Simrad multibeam vendor format
0217_20070705_154133_raw.all.mb56.gz 3.99MB Simrad multibeam vendor format
0218_20070705_164134_raw.all.mb56.gz 4.06MB Simrad multibeam vendor format
0219_20070705_174134_raw.all.mb56.gz 3.86MB Simrad multibeam vendor format
0220_20070705_184134_raw.all.mb56.gz 3.83MB Simrad multibeam vendor format
0221_20070705_194135_raw.all.mb56.gz 4.05MB Simrad multibeam vendor format
0222_20070705_204135_raw.all.mb56.gz 4.27MB Simrad multibeam vendor format
0223_20070705_214136_raw.all.mb56.gz 4.56MB Simrad multibeam vendor format
0224_20070705_224136_raw.all.mb56.gz 4.56MB Simrad multibeam vendor format
0225_20070705_234136_raw.all.mb56.gz 4.48MB Simrad multibeam vendor format
0226_20070706_004137_raw.all.mb56.gz 4.01MB Simrad multibeam vendor format
0227_20070706_014137_raw.all.mb56.gz 3.90MB Simrad multibeam vendor format
0228_20070706_024138_raw.all.mb56.gz 3.99MB Simrad multibeam vendor format
0229_20070706_034138_raw.all.mb56.gz 4.34MB Simrad multibeam vendor format
0230_20070706_044138_raw.all.mb56.gz 4.53MB Simrad multibeam vendor format
0231_20070706_054139_raw.all.mb56.gz 4.53MB Simrad multibeam vendor format
0232_20070706_064139_raw.all.mb56.gz 4.64MB Simrad multibeam vendor format
0233_20070706_074140_raw.all.mb56.gz 4.59MB Simrad multibeam vendor format
0234_20070706_084140_raw.all.mb56.gz 4.46MB Simrad multibeam vendor format
0235_20070706_094140_raw.all.mb56.gz 4.25MB Simrad multibeam vendor format
0236_20070706_104141_raw.all.mb56.gz 4.45MB Simrad multibeam vendor format
0237_20070706_114141_raw.all.mb56.gz 4.45MB Simrad multibeam vendor format
0238_20070706_124142_raw.all.mb56.gz 4.39MB Simrad multibeam vendor format
0239_20070706_134142_raw.all.mb56.gz 4.24MB Simrad multibeam vendor format
0240_20070706_144142_raw.all.mb56.gz 4.24MB Simrad multibeam vendor format
0241_20070706_154143_raw.all.mb56.gz 4.17MB Simrad multibeam vendor format
0242_20070706_164143_raw.all.mb56.gz 4.11MB Simrad multibeam vendor format
0243_20070706_174143_raw.all.mb56.gz 4.36MB Simrad multibeam vendor format
0244_20070706_184144_raw.all.mb56.gz 4.46MB Simrad multibeam vendor format
0245_20070706_194144_raw.all.mb56.gz 4.48MB Simrad multibeam vendor format
0246_20070706_204144_raw.all.mb56.gz 4.59MB Simrad multibeam vendor format
0247_20070706_214145_raw.all.mb56.gz 4.41MB Simrad multibeam vendor format
0248_20070706_224145_raw.all.mb56.gz 3.97MB Simrad multibeam vendor format
0249_20070706_234146_raw.all.mb56.gz 4.02MB Simrad multibeam vendor format
0250_20070707_004146_raw.all.mb56.gz 1.23MB Simrad multibeam vendor format
0251_20070707_084648_raw.all.mb56.gz 3.65MB Simrad multibeam vendor format
0252_20070707_094648_raw.all.mb56.gz 3.67MB Simrad multibeam vendor format
0253_20070707_104649_raw.all.mb56.gz 2.61MB Simrad multibeam vendor format
0254_20070707_112917_raw.all.mb56.gz 3.92MB Simrad multibeam vendor format
0255_20070707_122917_raw.all.mb56.gz 3.92MB Simrad multibeam vendor format
0256_20070707_132918_raw.all.mb56.gz 2.85MB Simrad multibeam vendor format
0257_20070707_142918_raw.all.mb56.gz 2.13MB Simrad multibeam vendor format
0258_20070707_152919_raw.all.mb56.gz 1.42MB Simrad multibeam vendor format
0259_20070707_202907_raw.all.mb56.gz 4.13MB Simrad multibeam vendor format
0260_20070707_212908_raw.all.mb56.gz 150.5KB Simrad multibeam vendor format
0262_20070708_040602_raw.all.mb56.gz 4.29MB Simrad multibeam vendor format
0263_20070708_050602_raw.all.mb56.gz 4.21MB Simrad multibeam vendor format
0264_20070708_060603_raw.all.mb56.gz 4.05MB Simrad multibeam vendor format
0265_20070708_070603_raw.all.mb56.gz 4.11MB Simrad multibeam vendor format
0266_20070708_080604_raw.all.mb56.gz 3.97MB Simrad multibeam vendor format
0267_20070708_090604_raw.all.mb56.gz 3.89MB Simrad multibeam vendor format
0268_20070708_100604_raw.all.mb56.gz 4.08MB Simrad multibeam vendor format
0269_20070708_110605_raw.all.mb56.gz 4.33MB Simrad multibeam vendor format
0270_20070708_120605_raw.all.mb56.gz 4.55MB Simrad multibeam vendor format
0271_20070708_130605_raw.all.mb56.gz 4.23MB Simrad multibeam vendor format
0272_20070708_140606_raw.all.mb56.gz 3.58MB Simrad multibeam vendor format
0273_20070708_150606_raw.all.mb56.gz 3.38MB Simrad multibeam vendor format
0274_20070708_222005_raw.all.mb56.gz 3.77MB Simrad multibeam vendor format
0275_20070708_232005_raw.all.mb56.gz 4.09MB Simrad multibeam vendor format
0276_20070709_002005_raw.all.mb56.gz 4.25MB Simrad multibeam vendor format
0277_20070709_012006_raw.all.mb56.gz 4.38MB Simrad multibeam vendor format
0278_20070709_022006_raw.all.mb56.gz 4.33MB Simrad multibeam vendor format
0279_20070709_032006_raw.all.mb56.gz 4.20MB Simrad multibeam vendor format
0280_20070709_042007_raw.all.mb56.gz 3.87MB Simrad multibeam vendor format
0281_20070709_052007_raw.all.mb56.gz 3.96MB Simrad multibeam vendor format
0282_20070709_062007_raw.all.mb56.gz 4.04MB Simrad multibeam vendor format
0283_20070709_072008_raw.all.mb56.gz 3.72MB Simrad multibeam vendor format
0284_20070709_082008_raw.all.mb56.gz 2.82MB Simrad multibeam vendor format
0285_20070709_163215_raw.all.mb56.gz 4.10MB Simrad multibeam vendor format
0286_20070709_173216_raw.all.mb56.gz 4.22MB Simrad multibeam vendor format
0287_20070709_183216_raw.all.mb56.gz 4.06MB Simrad multibeam vendor format
0288_20070709_193216_raw.all.mb56.gz 4.00MB Simrad multibeam vendor format
0289_20070709_203217_raw.all.mb56.gz 4.10MB Simrad multibeam vendor format
0290_20070709_213217_raw.all.mb56.gz 4.14MB Simrad multibeam vendor format
0291_20070709_223217_raw.all.mb56.gz 3.94MB Simrad multibeam vendor format
0292_20070709_233218_raw.all.mb56.gz 3.92MB Simrad multibeam vendor format
0293_20070710_003218_raw.all.mb56.gz 4.02MB Simrad multibeam vendor format
0294_20070710_013218_raw.all.mb56.gz 4.15MB Simrad multibeam vendor format
0295_20070710_023219_raw.all.mb56.gz 4.35MB Simrad multibeam vendor format
0296_20070710_033219_raw.all.mb56.gz 4.77MB Simrad multibeam vendor format
0297_20070710_043220_raw.all.mb56.gz 5.46MB Simrad multibeam vendor format
0298_20070710_053220_raw.all.mb56.gz 5.43MB Simrad multibeam vendor format
0299_20070710_063220_raw.all.mb56.gz 5.58MB Simrad multibeam vendor format
0300_20070710_073221_raw.all.mb56.gz 6.14MB Simrad multibeam vendor format
0301_20070710_083221_raw.all.mb56.gz 5.99MB Simrad multibeam vendor format
0302_20070710_093221_raw.all.mb56.gz 5.69MB Simrad multibeam vendor format
0303_20070710_103222_raw.all.mb56.gz 5.76MB Simrad multibeam vendor format
0304_20070710_113222_raw.all.mb56.gz 5.74MB Simrad multibeam vendor format
0305_20070710_123223_raw.all.mb56.gz 5.77MB Simrad multibeam vendor format
0306_20070710_133223_raw.all.mb56.gz 5.87MB Simrad multibeam vendor format
0307_20070710_143223_raw.all.mb56.gz 5.89MB Simrad multibeam vendor format
0308_20070710_153224_raw.all.mb56.gz 5.83MB Simrad multibeam vendor format
0309_20070710_163224_raw.all.mb56.gz 5.70MB Simrad multibeam vendor format
0310_20070710_173225_raw.all.mb56.gz 5.78MB Simrad multibeam vendor format
0311_20070710_183225_raw.all.mb56.gz 5.81MB Simrad multibeam vendor format
0312_20070710_193225_raw.all.mb56.gz 5.68MB Simrad multibeam vendor format
0313_20070710_203226_raw.all.mb56.gz 5.61MB Simrad multibeam vendor format
0314_20070710_213226_raw.all.mb56.gz 5.72MB Simrad multibeam vendor format
0315_20070710_223226_raw.all.mb56.gz 5.54MB Simrad multibeam vendor format
0316_20070710_233227_raw.all.mb56.gz 5.03MB Simrad multibeam vendor format
0317_20070711_003227_raw.all.mb56.gz 6.11MB Simrad multibeam vendor format
0318_20070711_013227_raw.all.mb56.gz 6.01MB Simrad multibeam vendor format
0319_20070711_023228_raw.all.mb56.gz 5.68MB Simrad multibeam vendor format
0320_20070711_033228_raw.all.mb56.gz 6.38MB Simrad multibeam vendor format
0321_20070711_043228_raw.all.mb56.gz 6.58MB Simrad multibeam vendor format
0322_20070711_053229_raw.all.mb56.gz 6.20MB Simrad multibeam vendor format
0323_20070711_063229_raw.all.mb56.gz 4.97MB Simrad multibeam vendor format
0324_20070711_073230_raw.all.mb56.gz 4.66MB Simrad multibeam vendor format
0325_20070711_083230_raw.all.mb56.gz 4.39MB Simrad multibeam vendor format
0326_20070711_093231_raw.all.mb56.gz 4.41MB Simrad multibeam vendor format
0327_20070711_103231_raw.all.mb56.gz 4.39MB Simrad multibeam vendor format
0328_20070711_113231_raw.all.mb56.gz 4.45MB Simrad multibeam vendor format
0329_20070711_123232_raw.all.mb56.gz 4.73MB Simrad multibeam vendor format
0330_20070711_133232_raw.all.mb56.gz 4.99MB Simrad multibeam vendor format
0331_20070711_143233_raw.all.mb56.gz 5.25MB Simrad multibeam vendor format
0332_20070711_153233_raw.all.mb56.gz 5.66MB Simrad multibeam vendor format
0333_20070711_163233_raw.all.mb56.gz 5.75MB Simrad multibeam vendor format
0334_20070711_173234_raw.all.mb56.gz 5.69MB Simrad multibeam vendor format
0335_20070711_183234_raw.all.mb56.gz 5.27MB Simrad multibeam vendor format
0336_20070711_193235_raw.all.mb56.gz 4.80MB Simrad multibeam vendor format
0337_20070711_203235_raw.all.mb56.gz 4.90MB Simrad multibeam vendor format
0338_20070711_213235_raw.all.mb56.gz 5.34MB Simrad multibeam vendor format
0339_20070711_223236_raw.all.mb56.gz 5.69MB Simrad multibeam vendor format
0340_20070711_233236_raw.all.mb56.gz 5.83MB Simrad multibeam vendor format
0341_20070712_003236_raw.all.mb56.gz 5.74MB Simrad multibeam vendor format
0342_20070712_013237_raw.all.mb56.gz 5.77MB Simrad multibeam vendor format
0343_20070712_023237_raw.all.mb56.gz 5.94MB Simrad multibeam vendor format
0344_20070712_033238_raw.all.mb56.gz 6.15MB Simrad multibeam vendor format
0345_20070712_043238_raw.all.mb56.gz 5.98MB Simrad multibeam vendor format
0346_20070712_053238_raw.all.mb56.gz 5.97MB Simrad multibeam vendor format
0347_20070712_063239_raw.all.mb56.gz 5.37MB Simrad multibeam vendor format
0348_20070712_073239_raw.all.mb56.gz 4.90MB Simrad multibeam vendor format
0349_20070712_083239_raw.all.mb56.gz 4.49MB Simrad multibeam vendor format
0350_20070712_093240_raw.all.mb56.gz 4.56MB Simrad multibeam vendor format
0351_20070712_103240_raw.all.mb56.gz 4.32MB Simrad multibeam vendor format
0352_20070712_113241_raw.all.mb56.gz 4.45MB Simrad multibeam vendor format
0353_20070712_123241_raw.all.mb56.gz 4.15MB Simrad multibeam vendor format
0354_20070712_133241_raw.all.mb56.gz 4.11MB Simrad multibeam vendor format
0355_20070712_143242_raw.all.mb56.gz 4.53MB Simrad multibeam vendor format
0356_20070712_153242_raw.all.mb56.gz 4.76MB Simrad multibeam vendor format
0357_20070712_163242_raw.all.mb56.gz 5.04MB Simrad multibeam vendor format
0358_20070712_173243_raw.all.mb56.gz 5.46MB Simrad multibeam vendor format
0359_20070712_183243_raw.all.mb56.gz 5.62MB Simrad multibeam vendor format
0360_20070712_193244_raw.all.mb56.gz 6.63MB Simrad multibeam vendor format
0361_20070712_203244_raw.all.mb56.gz 5.69MB Simrad multibeam vendor format
0362_20070712_213244_raw.all.mb56.gz 5.12MB Simrad multibeam vendor format
0363_20070712_223245_raw.all.mb56.gz 4.90MB Simrad multibeam vendor format
0364_20070712_233245_raw.all.mb56.gz 4.46MB Simrad multibeam vendor format
0365_20070713_003246_raw.all.mb56.gz 3.93MB Simrad multibeam vendor format
0366_20070713_013246_raw.all.mb56.gz 4.05MB Simrad multibeam vendor format
0367_20070713_023246_raw.all.mb56.gz 4.13MB Simrad multibeam vendor format
0368_20070713_033247_raw.all.mb56.gz 4.13MB Simrad multibeam vendor format
0369_20070713_043247_raw.all.mb56.gz 4.54MB Simrad multibeam vendor format
0370_20070713_053248_raw.all.mb56.gz 5.13MB Simrad multibeam vendor format
0371_20070713_063248_raw.all.mb56.gz 5.36MB Simrad multibeam vendor format
0372_20070713_073249_raw.all.mb56.gz 5.02MB Simrad multibeam vendor format
0373_20070713_083249_raw.all.mb56.gz 4.73MB Simrad multibeam vendor format
0374_20070713_093249_raw.all.mb56.gz 5.62MB Simrad multibeam vendor format
0375_20070713_103250_raw.all.mb56.gz 5.50MB Simrad multibeam vendor format
0376_20070713_113250_raw.all.mb56.gz 5.33MB Simrad multibeam vendor format
0377_20070713_123251_raw.all.mb56.gz 5.52MB Simrad multibeam vendor format
0378_20070713_133251_raw.all.mb56.gz 5.18MB Simrad multibeam vendor format
0379_20070713_143251_raw.all.mb56.gz 5.11MB Simrad multibeam vendor format
0380_20070713_153252_raw.all.mb56.gz 5.00MB Simrad multibeam vendor format
0381_20070713_163252_raw.all.mb56.gz 4.44MB Simrad multibeam vendor format
0382_20070713_173252_raw.all.mb56.gz 5.14MB Simrad multibeam vendor format
0383_20070713_183253_raw.all.mb56.gz 4.88MB Simrad multibeam vendor format
0384_20070713_193253_raw.all.mb56.gz 5.67MB Simrad multibeam vendor format
0385_20070713_203254_raw.all.mb56.gz 5.96MB Simrad multibeam vendor format
0386_20070713_213254_raw.all.mb56.gz 5.54MB Simrad multibeam vendor format
0387_20070713_223254_raw.all.mb56.gz 5.55MB Simrad multibeam vendor format
0388_20070713_233255_raw.all.mb56.gz 4.70MB Simrad multibeam vendor format
0389_20070714_003255_raw.all.mb56.gz 4.87MB Simrad multibeam vendor format
0390_20070714_013256_raw.all.mb56.gz 3.84MB Simrad multibeam vendor format
0391_20070714_023256_raw.all.mb56.gz 4.14MB Simrad multibeam vendor format
0392_20070714_033257_raw.all.mb56.gz 4.17MB Simrad multibeam vendor format
0393_20070714_043257_raw.all.mb56.gz 1.95MB Simrad multibeam vendor format
0395_20070714_122718_raw.all.mb56.gz 3.41MB Simrad multibeam vendor format
0396_20070714_131426_raw.all.mb56.gz 4.31MB Simrad multibeam vendor format
0397_20070714_141426_raw.all.mb56.gz 4.18MB Simrad multibeam vendor format
0398_20070714_151427_raw.all.mb56.gz 4.65MB Simrad multibeam vendor format
0399_20070714_161427_raw.all.mb56.gz 4.63MB Simrad multibeam vendor format
0400_20070714_171428_raw.all.mb56.gz 4.54MB Simrad multibeam vendor format
0401_20070714_181428_raw.all.mb56.gz 4.35MB Simrad multibeam vendor format
0402_20070714_191428_raw.all.mb56.gz 4.27MB Simrad multibeam vendor format
0403_20070714_201429_raw.all.mb56.gz 4.09MB Simrad multibeam vendor format
0404_20070714_211429_raw.all.mb56.gz 4.30MB Simrad multibeam vendor format
0405_20070714_221430_raw.all.mb56.gz 4.00MB Simrad multibeam vendor format
0406_20070714_231430_raw.all.mb56.gz 4.12MB Simrad multibeam vendor format
0407_20070715_001430_raw.all.mb56.gz 4.42MB Simrad multibeam vendor format
0408_20070715_011431_raw.all.mb56.gz 4.37MB Simrad multibeam vendor format
0409_20070715_021431_raw.all.mb56.gz 4.80MB Simrad multibeam vendor format
0410_20070715_031431_raw.all.mb56.gz 5.13MB Simrad multibeam vendor format
0411_20070715_041432_raw.all.mb56.gz 5.23MB Simrad multibeam vendor format
0412_20070715_051432_raw.all.mb56.gz 5.10MB Simrad multibeam vendor format
0413_20070715_061433_raw.all.mb56.gz 2.95MB Simrad multibeam vendor format
0414_20070715_065115_raw.all.mb56.gz 4.54MB Simrad multibeam vendor format
0415_20070715_075116_raw.all.mb56.gz 4.69MB Simrad multibeam vendor format
0416_20070715_085116_raw.all.mb56.gz 4.97MB Simrad multibeam vendor format
0417_20070715_095117_raw.all.mb56.gz 4.91MB Simrad multibeam vendor format
0418_20070715_105117_raw.all.mb56.gz 2.27MB Simrad multibeam vendor format
0419_20070715_112220_raw.all.mb56.gz 1.21MB Simrad multibeam vendor format
0420_20070715_183616_raw.all.mb56.gz 4.50MB Simrad multibeam vendor format
0421_20070715_193616_raw.all.mb56.gz 4.25MB Simrad multibeam vendor format
0422_20070716_015007_raw.all.mb56.gz 4.89MB Simrad multibeam vendor format
0423_20070716_025007_raw.all.mb56.gz 4.83MB Simrad multibeam vendor format
0424_20070716_035008_raw.all.mb56.gz 5.32MB Simrad multibeam vendor format
0425_20070716_045008_raw.all.mb56.gz 5.09MB Simrad multibeam vendor format
0426_20070716_055008_raw.all.mb56.gz 4.47MB Simrad multibeam vendor format
0427_20070716_065009_raw.all.mb56.gz 4.12MB Simrad multibeam vendor format
0428_20070716_075009_raw.all.mb56.gz 4.12MB Simrad multibeam vendor format
0429_20070716_085009_raw.all.mb56.gz 3.88MB Simrad multibeam vendor format
0430_20070716_095010_raw.all.mb56.gz 4.03MB Simrad multibeam vendor format
0431_20070716_105010_raw.all.mb56.gz 3.78MB Simrad multibeam vendor format
0432_20070716_115011_raw.all.mb56.gz 4.32MB Simrad multibeam vendor format
0433_20070716_125011_raw.all.mb56.gz 4.51MB Simrad multibeam vendor format
0434_20070716_135011_raw.all.mb56.gz 2.28MB Simrad multibeam vendor format
0435_20070716_200317_raw.all.mb56.gz 4.34MB Simrad multibeam vendor format
0436_20070716_210317_raw.all.mb56.gz 0.64MB Simrad multibeam vendor format
0437_20070717_043201_raw.all.mb56.gz 4.50MB Simrad multibeam vendor format
0438_20070717_053201_raw.all.mb56.gz 4.15MB Simrad multibeam vendor format
0439_20070717_063201_raw.all.mb56.gz 4.26MB Simrad multibeam vendor format
0440_20070717_073202_raw.all.mb56.gz 3.99MB Simrad multibeam vendor format
0441_20070717_083202_raw.all.mb56.gz 3.85MB Simrad multibeam vendor format
0442_20070717_093203_raw.all.mb56.gz 3.97MB Simrad multibeam vendor format
0443_20070717_103203_raw.all.mb56.gz 4.08MB Simrad multibeam vendor format
0444_20070717_113203_raw.all.mb56.gz 4.25MB Simrad multibeam vendor format
0445_20070717_123204_raw.all.mb56.gz 4.52MB Simrad multibeam vendor format
0446_20070717_133204_raw.all.mb56.gz 4.66MB Simrad multibeam vendor format
0447_20070717_143205_raw.all.mb56.gz 4.64MB Simrad multibeam vendor format
0448_20070717_153205_raw.all.mb56.gz 4.65MB Simrad multibeam vendor format
0449_20070717_163205_raw.all.mb56.gz 4.75MB Simrad multibeam vendor format
0450_20070717_173206_raw.all.mb56.gz 4.18MB Simrad multibeam vendor format
0451_20070717_183206_raw.all.mb56.gz 4.38MB Simrad multibeam vendor format
0452_20070717_193139_raw.all.mb56.gz 1.45MB Simrad multibeam vendor format
0454_20070718_005836_raw.all.mb56.gz 4.32MB Simrad multibeam vendor format
0455_20070718_015836_raw.all.mb56.gz 4.15MB Simrad multibeam vendor format
0456_20070718_025836_raw.all.mb56.gz 4.12MB Simrad multibeam vendor format
0457_20070718_035837_raw.all.mb56.gz 4.58MB Simrad multibeam vendor format
0458_20070718_071441_raw.all.mb56.gz 12.3KB Simrad multibeam vendor format
0460_20070718_120933_raw.all.mb56.gz 4.65MB Simrad multibeam vendor format
0461_20070718_130933_raw.all.mb56.gz 4.64MB Simrad multibeam vendor format
0462_20070718_140934_raw.all.mb56.gz 4.77MB Simrad multibeam vendor format
0463_20070718_150934_raw.all.mb56.gz 4.85MB Simrad multibeam vendor format
0464_20070718_160934_raw.all.mb56.gz 4.81MB Simrad multibeam vendor format
0465_20070718_170935_raw.all.mb56.gz 4.57MB Simrad multibeam vendor format
0466_20070718_180935_raw.all.mb56.gz 4.26MB Simrad multibeam vendor format
0467_20070718_190936_raw.all.mb56.gz 4.36MB Simrad multibeam vendor format
0468_20070718_200936_raw.all.mb56.gz 4.39MB Simrad multibeam vendor format
0469_20070718_210936_raw.all.mb56.gz 4.41MB Simrad multibeam vendor format
0470_20070718_220937_raw.all.mb56.gz 4.19MB Simrad multibeam vendor format
0471_20070718_230937_raw.all.mb56.gz 3.62MB Simrad multibeam vendor format
0472_20070719_000938_raw.all.mb56.gz 3.78MB Simrad multibeam vendor format
0473_20070719_010938_raw.all.mb56.gz 3.77MB Simrad multibeam vendor format
0474_20070719_020938_raw.all.mb56.gz 3.49MB Simrad multibeam vendor format
0475_20070719_030939_raw.all.mb56.gz 3.03MB Simrad multibeam vendor format
0476_20070719_081944_raw.all.mb56.gz 41.7KB Simrad multibeam vendor format
0477_20070719_082023_raw.all.mb56.gz 72.3KB Simrad multibeam vendor format
0478_20070719_122156_raw.all.mb56.gz 3.20MB Simrad multibeam vendor format
0479_20070719_130553_raw.all.mb56.gz 3.20MB Simrad multibeam vendor format
0481_20070719_225141_raw.all.mb56.gz 4.72MB Simrad multibeam vendor format
0482_20070719_235141_raw.all.mb56.gz 4.93MB Simrad multibeam vendor format
0483_20070720_005142_raw.all.mb56.gz 4.51MB Simrad multibeam vendor format
0484_20070720_015142_raw.all.mb56.gz 3.71MB Simrad multibeam vendor format
0485_20070720_025143_raw.all.mb56.gz 3.39MB Simrad multibeam vendor format
0486_20070720_035143_raw.all.mb56.gz 3.50MB Simrad multibeam vendor format
0487_20070720_045143_raw.all.mb56.gz 3.55MB Simrad multibeam vendor format
0488_20070720_055144_raw.all.mb56.gz 3.46MB Simrad multibeam vendor format
0489_20070720_065144_raw.all.mb56.gz 3.44MB Simrad multibeam vendor format
0490_20070720_075145_raw.all.mb56.gz 2.24MB Simrad multibeam vendor format
0491_20070720_150236_raw.all.mb56.gz 3.33MB Simrad multibeam vendor format
0492_20070720_160236_raw.all.mb56.gz 3.42MB Simrad multibeam vendor format
0493_20070720_170237_raw.all.mb56.gz 3.55MB Simrad multibeam vendor format
0494_20070720_180237_raw.all.mb56.gz 3.51MB Simrad multibeam vendor format
0495_20070720_190238_raw.all.mb56.gz 3.46MB Simrad multibeam vendor format
0496_20070720_200238_raw.all.mb56.gz 3.39MB Simrad multibeam vendor format
0497_20070720_210238_raw.all.mb56.gz 3.42MB Simrad multibeam vendor format
0498_20070720_220239_raw.all.mb56.gz 3.30MB Simrad multibeam vendor format
0499_20070720_230239_raw.all.mb56.gz 2.90MB Simrad multibeam vendor format
0500_20070721_093537_raw.all.mb56.gz 3.61MB Simrad multibeam vendor format
0501_20070721_103537_raw.all.mb56.gz 3.90MB Simrad multibeam vendor format
0502_20070721_113538_raw.all.mb56.gz 4.09MB Simrad multibeam vendor format
0503_20070721_123538_raw.all.mb56.gz 3.38MB Simrad multibeam vendor format
0504_20070721_133538_raw.all.mb56.gz 3.47MB Simrad multibeam vendor format
0505_20070721_143539_raw.all.mb56.gz 1.21MB Simrad multibeam vendor format
0507_20070721_223744_raw.all.mb56.gz 3.35MB Simrad multibeam vendor format
0508_20070721_233744_raw.all.mb56.gz 3.82MB Simrad multibeam vendor format
0509_20070722_003745_raw.all.mb56.gz 3.34MB Simrad multibeam vendor format
0510_20070722_013745_raw.all.mb56.gz 3.38MB Simrad multibeam vendor format
0511_20070722_023745_raw.all.mb56.gz 3.52MB Simrad multibeam vendor format
0512_20070722_033746_raw.all.mb56.gz 3.34MB Simrad multibeam vendor format
0513_20070722_043746_raw.all.mb56.gz 3.41MB Simrad multibeam vendor format
0514_20070722_053747_raw.all.mb56.gz 3.45MB Simrad multibeam vendor format
0515_20070722_063747_raw.all.mb56.gz 3.49MB Simrad multibeam vendor format
0516_20070722_073747_raw.all.mb56.gz 3.51MB Simrad multibeam vendor format
0517_20070722_083748_raw.all.mb56.gz 3.80MB Simrad multibeam vendor format
0518_20070722_093748_raw.all.mb56.gz 3.87MB Simrad multibeam vendor format
0519_20070722_103748_raw.all.mb56.gz 3.90MB Simrad multibeam vendor format
0520_20070722_113749_raw.all.mb56.gz 3.85MB Simrad multibeam vendor format
0521_20070722_123749_raw.all.mb56.gz 4.03MB Simrad multibeam vendor format
0522_20070722_133749_raw.all.mb56.gz 4.03MB Simrad multibeam vendor format
0523_20070722_143750_raw.all.mb56.gz 4.06MB Simrad multibeam vendor format
0524_20070722_153750_raw.all.mb56.gz 4.09MB Simrad multibeam vendor format
0525_20070722_163751_raw.all.mb56.gz 4.15MB Simrad multibeam vendor format
0526_20070722_173751_raw.all.mb56.gz 4.80MB Simrad multibeam vendor format
0527_20070722_183751_raw.all.mb56.gz 5.28MB Simrad multibeam vendor format
0528_20070722_193752_raw.all.mb56.gz 4.11MB Simrad multibeam vendor format
0529_20070722_203752_raw.all.mb56.gz 5.27MB Simrad multibeam vendor format
0530_20070722_213752_raw.all.mb56.gz 4.89MB Simrad multibeam vendor format
0531_20070722_223753_raw.all.mb56.gz 4.55MB Simrad multibeam vendor format
0532_20070722_233753_raw.all.mb56.gz 4.50MB Simrad multibeam vendor format
0533_20070723_003754_raw.all.mb56.gz 4.43MB Simrad multibeam vendor format
0534_20070723_013754_raw.all.mb56.gz 3.77MB Simrad multibeam vendor format
0535_20070723_062059_raw.all.mb56.gz 4.76MB Simrad multibeam vendor format
0536_20070723_072059_raw.all.mb56.gz 4.98MB Simrad multibeam vendor format
0537_20070723_082100_raw.all.mb56.gz 5.13MB Simrad multibeam vendor format
0538_20070723_092100_raw.all.mb56.gz 4.80MB Simrad multibeam vendor format
0539_20070723_102100_raw.all.mb56.gz 4.54MB Simrad multibeam vendor format
0540_20070723_112101_raw.all.mb56.gz 4.36MB Simrad multibeam vendor format
0541_20070723_122101_raw.all.mb56.gz 4.27MB Simrad multibeam vendor format
0542_20070723_132101_raw.all.mb56.gz 4.29MB Simrad multibeam vendor format
0543_20070723_142102_raw.all.mb56.gz 4.29MB Simrad multibeam vendor format
0544_20070723_152102_raw.all.mb56.gz 4.18MB Simrad multibeam vendor format
0545_20070723_162103_raw.all.mb56.gz 4.11MB Simrad multibeam vendor format
0546_20070723_172103_raw.all.mb56.gz 3.86MB Simrad multibeam vendor format
0547_20070723_182103_raw.all.mb56.gz 4.00MB Simrad multibeam vendor format
0548_20070723_192104_raw.all.mb56.gz 4.16MB Simrad multibeam vendor format
0549_20070723_202104_raw.all.mb56.gz 4.09MB Simrad multibeam vendor format
0550_20070723_212104_raw.all.mb56.gz 4.22MB Simrad multibeam vendor format
0551_20070723_222105_raw.all.mb56.gz 3.79MB Simrad multibeam vendor format
0552_20070723_232105_raw.all.mb56.gz 4.08MB Simrad multibeam vendor format
0553_20070724_002106_raw.all.mb56.gz 3.45MB Simrad multibeam vendor format
0554_20070724_012106_raw.all.mb56.gz 0.92MB Simrad multibeam vendor format
0555_20070724_091648_raw.all.mb56.gz 3.85MB Simrad multibeam vendor format
0556_20070724_101648_raw.all.mb56.gz 4.00MB Simrad multibeam vendor format
0557_20070724_111648_raw.all.mb56.gz 3.96MB Simrad multibeam vendor format
0558_20070724_121649_raw.all.mb56.gz 1.70MB Simrad multibeam vendor format

Full Resolution Bathymetry (processed): 1

Files File Size Description
knox06rr.b93.mb164.gz 267.99MB NGDC binary hydrographic sounding format

Metadata Files: 1

Files File Size Description
KNOX06RR_Multibeam.xml NGDC created ISO metadata

Ancillary Files: 1

Files File Size Description
xbt.tar.gz 419.4KB Expendable Bathythermograph (XBT) data